Weather in BeitBridge

Zimbabwe     22°12′15″S   29°59′56″E
temp.,
°C
wind,
m/s
gust,
m/s
humid.,
%
clouds,
%
prec.,
mm/h
press.,
hPa
HPBL,
m
20 june, sun
sun2023:00+15ese367476 0.0 1030210
02:00+13se48907 0.1 1030157
05:00+13ese510925 0.0 1029199
08:00+15e59835 0.0 1030413
11:00+21ese67455 0.0 10291373
14:00+23ese66315 0.0 10261954
17:00+22e573971 0.0 1026173
20:00+17ese59645 0.0 1028153
21 june, mon
mon2123:00+16ese496992 0.0 1028146
02:00+16ese5106994 0.0 1027334
05:00+13e49883 0.0 1027186
08:00+15e58815 0.0 1028380
11:00+20e555629 0.0 10281163
14:00+23e44455 0.0 10241537
17:00+22ne45455 0.0 1023106
20:00+17e23592 0.0 102512
22 june, tue
tue2223:00+16ese33640 0.0 102515
02:00+14e22730 0.0 102511
05:00+12se12810 0.0 102510
08:00+16e23630 0.0 1026155
11:00+21e22420 0.0 10241020
14:00+24e22320 0.0 10211600
17:00+22e33330 0.0 102018
20:00+18ene33440 0.0 102217
23 june, wed
wed2323:00+16ese22510 0.0 102211
02:00+14ese22590 0.0 102211
05:00+13n11770 0.0 102211
08:00+17wnw11630 0.0 102487
11:00+22nnw11480 0.0 1023913
14:00+25nnw11350 0.0 10191647
17:00+23nnw11380 0.0 101811
20:00+18wnw11490 0.0 102011
24 june, thu
thu2423:00+18e22490 0.0 102011
02:00+15sse12590 0.0 102011
05:00+14n11720 0.0 102011
08:00+18n11540 0.0 102273
11:00+23nnw12410 0.0 1021912
14:00+26wnw23290 0.0 10171789
17:00+24nw22320 0.0 101611
20:00+20wsw11420 0.0 101711